Location: Eagan
(44.8336°N, 93.1671°W)
Time: 18:15:24
(UTC+00:00)

Envisat - Pass Details

Date: 17 October 2024
Orbit: 761 x 763 km, 98.3° (Epoch: 07 November)

Event Time Altitude Azimuth Distance (km) Brightness Sun altitude
Rises 08:56:32 0° 18° (NNE) 3,236 6.8 -37.9°
Reaches altitude 10° 08:58:56 10° 24° (NNE) 2,305 6.0 -37.5°
Enters shadow 09:00:54 23° 35° (NE) 1,591 5.1 -37.2°
